Date String (YYYY-MM-DD hh:mm:ss) UTC,Instrument flags,absolute air pressure of the measurement (hPa),sample flow rate (lpm),inlet stack bypass flow (lpm),air temperature of the measurement (°C),ambient temperature measured by the external sensor (°C),aerosol sample conditioner tube jacket temperature (°C),OPC LED temperature (°C),internal box temperature (°C),relative humidity of the measurement (%),span deviation,mass concentration of particles derived from Lorenz-Mie calculation of OPC scattering (μg/m³),mass concentration of particles derived from Lorenz-Mie calculation of OPC scattering (μg/m³),mass concentration of particles derived from Lorenz-Mie calculation of OPC scattering (μg/m³)
DateTimeUTC,F1_M11,P_M11,Q1_M11,Q2_M11,T1_M11,T2_M11,T3_M11,T4_M11,T5_M11,U1_M11,ZSPAN_M11,X2_M11,X0_M11,X1_M11
2023-10-13 03:00:00,SystemResetWarning,0824.8,5.00,000.00,028.0,026.5,000.0,036.5,029.7,15.1,0000.0,0000.52,0005.49,0000.14
2023-10-13 03:01:00,SystemResetWarning,0824.9,5.00,000.00,028.1,026.5,000.0,036.5,029.7,15.1,0000.0,0000.49,0004.71,0000.14
2023-10-13 03:02:00,SystemResetWarning,0824.9,5.00,000.00,028.1,026.5,000.0,036.5,029.7,15.0,0000.0,0000.46,0004.57,0000.14
2023-10-13 03:03:00,SystemResetWarning,0824.8,5.00,000.00,028.1,026.5,000.0,036.5,029.7,14.8,0000.0,0000.42,0004.47,0000.14
2023-10-13 03:04:00,SystemResetWarning,0824.9,5.00,000.00,028.1,026.5,000.0,036.5,029.7,14.6,0000.0,0000.38,0004.25,0000.15
2023-10-13 03:05:00,SystemResetWarning,0824.9,5.00,000.00,028.1,026.5,000.0,036.5,029.7,14.7,0000.0,0000.36,0004.52,0000.15
2023-10-13 03:06:00,SystemResetWarning,0824.8,4.99,000.00,028.1,026.5,000.0,036.5,029.7,14.8,0000.0,0000.37,0002.87,0000.15
2023-10-13 03:07:00,SystemResetWarning,0824.8,4.99,000.00,028.0,026.5,000.0,036.5,029.7,14.4,0000.0,0000.37,0002.69,0000.15
2023-10-13 03:08:00,SystemResetWarning,0824.9,5.00,000.00,028.0,026.5,000.0,036.5,029.6,14.5,0000.0,0000.30,0002.45,0000.15
2023-10-13 03:09:00,SystemResetWarning,0824.9,5.00,000.00,028.0,026.4,000.0,036.5,029.6,14.6,0000.0,0000.28,0002.38,0000.15
2023-10-13 03:10:00,SystemResetWarning,0824.9,5.00,000.00,028.0,026.4,000.0,036.5,029.6,14.5,0000.0,0000.27,0002.38,0000.14
2023-10-13 03:11:00,SystemResetWarning,0824.9,5.00,000.00,028.0,026.4,000.0,036.4,029.6,14.8,0000.0,0000.26,0002.36,0000.15
2023-10-13 03:12:00,SystemResetWarning,0824.9,5.00,000.00,028.0,026.4,000.0,036.5,029.6,14.9,0000.0,0000.26,0002.49,0000.15
2023-10-13 03:13:00,SystemResetWarning,0824.9,5.00,000.00,028.0,026.3,000.0,036.4,029.5,15.0,0000.0,0000.30,0003.38,0000.15
2023-10-13 03:14:00,SystemResetWarning,0824.9,5.00,000.00,027.9,026.3,000.0,036.4,029.5,14.8,0000.0,0000.32,0004.39,0000.14
2023-10-13 03:15:00,SystemResetWarning,0824.9,5.01,000.00,027.9,026.2,000.0,036.4,029.5,14.6,0000.0,0000.33,0004.43,0000.15
2023-10-13 03:16:00,SystemResetWarning,0825.1,5.01,000.00,027.9,026.2,000.0,036.4,029.5,14.8,0000.0,0000.33,0003.66,0000.15
2023-10-13 03:17:00,SystemResetWarning,0825.2,5.01,000.00,027.9,026.2,000.0,036.4,029.5,14.9,0000.0,0000.33,0002.55,0000.15
2023-10-13 03:18:00,SystemResetWarning,0825.1,4.99,000.00,027.9,026.2,000.0,036.4,029.5,14.9,0000.0,0000.34,0002.59,0000.15
2023-10-13 03:19:00,SystemResetWarning,0825.1,5.00,000.00,027.9,026.2,000.0,036.4,029.5,14.6,0000.0,0000.37,0002.85,0000.15
2023-10-13 03:20:00,SystemResetWarning,0825.0,5.00,000.00,027.9,026.2,000.0,036.4,029.5,14.3,0000.0,0000.39,0002.90,0000.15
2023-10-13 03:21:00,SystemResetWarning,0825.0,5.00,000.00,027.9,026.3,000.0,036.4,029.5,14.2,0000.0,0000.39,0003.61,0000.16
2023-10-13 03:22:00,SystemResetWarning,0825.1,5.00,000.00,027.9,026.2,000.0,036.4,029.5,14.2,0000.0,0000.39,0004.34,0000.16
2023-10-13 03:23:00,SystemResetWarning,0825.2,5.00,000.00,027.9,026.2,000.0,036.4,029.5,14.3,0000.0,0000.39,0004.23,0000.16
2023-10-13 03:24:00,SystemResetWarning,0825.2,5.00,000.00,027.8,026.2,000.0,036.3,029.5,14.2,0000.0,0000.39,0003.51,0000.15
2023-10-13 03:25:00,SystemResetWarning,0825.3,5.00,000.00,027.8,026.2,000.0,036.3,029.5,14.3,0000.0,0000.39,0002.57,0000.15
2023-10-13 03:26:00,SystemResetWarning,0825.3,5.00,000.00,027.8,026.2,000.0,036.3,029.5,14.6,0000.0,0000.38,0002.68,0000.15
2023-10-13 03:27:00,SystemResetWarning,0825.3,5.01,000.00,027.8,026.2,000.0,036.3,029.5,14.9,0000.0,0000.38,0004.14,0000.14
2023-10-13 03:28:00,SystemResetWarning,0825.4,5.00,000.00,027.8,026.2,000.0,036.3,029.4,15.2,0000.0,0000.37,0004.13,0000.14
2023-10-13 03:29:00,SystemResetWarning,0825.4,5.00,000.00,027.8,026.2,000.0,036.3,029.4,15.3,0000.0,0000.39,0004.23,0000.14
2023-10-13 03:30:00,SystemResetWarning,0825.4,5.00,000.00,027.8,026.2,000.0,036.3,029.4,15.3,0000.0,0000.41,0004.10,0000.14
2023-10-13 03:31:00,SystemResetWarning,0825.4,5.00,000.00,027.8,026.2,000.0,036.3,029.4,15.3,0000.0,0000.41,0004.10,0000.14
2023-10-13 03:32:00,SystemResetWarning,0825.4,5.00,000.00,027.8,026.2,000.0,036.3,029.4,15.4,0000.0,0000.45,0003.48,0000.14
2023-10-13 03:33:00,SystemResetWarning,0825.5,4.99,000.00,027.8,026.2,000.0,036.3,029.4,15.4,0000.0,0000.46,0002.89,0000.14
2023-10-13 03:34:00,SystemResetWarning,0825.5,5.00,000.00,027.8,026.2,000.0,036.3,029.4,15.5,0000.0,0000.50,0003.13,0000.14
2023-10-13 03:35:00,SystemResetWarning,0825.5,4.99,000.00,027.8,026.1,000.0,036.3,029.4,15.5,0000.0,0000.50,0003.02,0000.15
2023-10-13 03:36:00,SystemResetWarning,0825.6,5.00,000.00,027.7,026.1,000.0,036.3,029.3,15.5,0000.0,0000.51,0003.06,0000.15
2023-10-13 03:37:00,SystemResetWarning,0825.6,5.00,000.00,027.7,026.1,000.0,036.2,029.3,15.5,0000.0,0000.50,0003.66,0000.15
2023-10-13 03:38:00,SystemResetWarning,0825.8,5.01,000.00,027.7,026.1,000.0,036.2,029.3,15.5,0000.0,0000.53,0003.50,0000.15
2023-10-13 03:39:00,SystemResetWarning,0825.7,5.01,000.00,027.7,026.1,000.0,036.2,029.3,15.5,0000.0,0000.59,0003.43,0000.16
2023-10-13 03:40:00,SystemResetWarning,0825.8,5.00,000.00,027.7,026.1,000.0,036.2,029.3,15.3,0000.0,0000.64,0004.20,0000.16
2023-10-13 03:41:00,SystemResetWarning,0825.8,5.00,000.00,027.7,026.1,000.0,036.2,029.3,15.3,0000.0,0000.63,0005.24,0000.16
2023-10-13 03:42:00,SystemResetWarning,0825.9,5.00,000.00,027.7,026.0,000.0,036.2,029.3,15.3,0000.0,0000.63,0006.50,0000.17
2023-10-13 03:43:00,SystemResetWarning,0825.9,4.99,000.00,027.7,026.0,000.0,036.2,029.3,15.4,0000.0,0000.69,0007.12,0000.17
2023-10-13 03:44:00,SystemResetWarning,0825.9,5.00,000.00,027.6,026.0,000.0,036.2,029.3,15.3,0000.0,0000.73,0008.54,0000.17
2023-10-13 03:45:00,SystemResetWarning,0825.9,5.00,000.00,027.6,026.0,000.0,036.2,029.2,15.3,0000.0,0000.74,0008.50,0000.17
2023-10-13 03:46:00,SystemResetWarning,0825.9,5.00,000.00,027.6,026.0,000.0,036.2,029.2,15.2,0000.0,0000.72,0009.24,0000.17
2023-10-13 03:47:00,SystemResetWarning,0825.9,5.00,000.00,027.6,026.0,000.0,036.1,029.2,15.2,0000.0,0000.71,0009.41,0000.17
2023-10-13 03:48:00,SystemResetWarning,0826.0,5.00,000.00,027.6,025.9,000.0,036.1,029.2,15.2,0000.0,0000.75,0009.77,0000.17
2023-10-13 03:49:00,SystemResetWarning,0826.0,5.00,000.00,027.6,025.9,000.0,036.1,029.2,15.3,0000.0,0000.80,0009.48,0000.18
2023-10-13 03:50:00,SystemResetWarning,0826.1,5.00,000.00,027.6,025.9,000.0,036.1,029.2,15.2,0000.0,0000.76,0009.99,0000.18
2023-10-13 03:51:00,SystemResetWarning,0826.1,5.00,000.00,027.6,025.9,000.0,036.1,029.2,15.2,0000.0,0000.76,0009.85,0000.17
2023-10-13 03:52:00,SystemResetWarning,0826.1,5.00,000.00,027.6,025.9,000.0,036.1,029.1,15.3,0000.0,0000.77,0009.34,0000.17
2023-10-13 03:53:00,SystemResetWarning,0826.2,5.00,000.00,027.5,025.9,000.0,036.1,029.2,15.3,0000.0,0000.77,0008.67,0000.17
2023-10-13 03:54:00,SystemResetWarning,0826.2,5.00,000.00,027.5,025.9,000.0,036.1,029.1,15.3,0000.0,0000.71,0008.50,0000.18
2023-10-13 03:55:00,SystemResetWarning,0826.2,5.00,000.00,027.5,025.9,000.0,036.1,029.2,15.2,0000.0,0000.68,0007.37,0000.18
2023-10-13 03:56:00,SystemResetWarning,0826.2,5.00,000.00,027.5,025.9,000.0,036.0,029.2,15.2,0000.0,0000.70,0007.41,0000.18
2023-10-13 03:57:00,SystemResetWarning,0826.2,5.00,000.00,027.5,025.9,000.0,036.0,029.1,15.1,0000.0,0000.77,0006.81,0000.18
2023-10-13 03:58:00,SystemResetWarning,0826.2,5.00,000.00,027.5,025.9,000.0,036.0,029.2,15.0,0000.0,0000.85,0007.24,0000.18
2023-10-13 03:59:00,SystemResetWarning,0826.2,5.00,000.00,027.5,025.9,000.0,036.0,029.2,14.9,0000.0,0000.95,0007.51,0000.18
